Regional Weather Roundup
Issued by NWS Wilmington, NC

Home | Current Version | Previous Version | Text Only | Print | Product List | Glossary On
Versions: 1 2 3 4 5 6 7 8 9 10 11 12 13 14 15 16 17 18 19 20 21 22 23 24 25 26
000
ASUS42 KILM 242213
RWRILM
RWRILM
REGIONAL HOURLY WEATHER ROUNDUP
NATIONAL WEATHER SERVICE WILMINGTON NC
600 PM EDT SUN JUL 24 2016

NOTE: "FAIR" INDICATES FEW OR NO CLOUDS BELOW 12,000 FEET WITH NO
SIGNIFICANT WEATHER AND/OR OBSTRUCTIONS TO VISIBILITY.

...............WFO WILMINGTON COUNTY WARNING AREA...............

......COASTAL NC AND SC COUNTIES......

CITY           SKY/WX    TMP DP  RH WIND       PRES   REMARKS
WILMINGTON     MOSUNNY   90  76  63 S8        30.01S HX 101
N MYRTLE BEACH SUNNY     87  77  72 SW15      30.01F HX  99
MYRTLE BEACH   SUNNY     90  73  58 SW8       30.03S HX  98

......INLAND NC AND SC COUNTIES.......

CITY           SKY/WX    TMP DP  RH WIND       PRES   REMARKS
LUMBERTON      SUNNY     94  73  50 W6        29.98S HX 103
ELIZABETHTOWN  MOSUNNY   91  75  59 S8        30.00R HX 101
WHITEVILLE     MOSUNNY   88  80  76 S3        30.00S HX 104
FLORENCE       SUNNY     95  71  45 S7        29.99S HX 102
DARLINGTON     SUNNY     93  76  57 S6        30.00R HX 105
KINGSTREE      FAIR      90  73  58 S7        30.00S HX  98
HARTSVILLE     FAIR      91  72  52 S8        29.99S HX  98
BENNETTSVILLE  FAIR      95  75  52 S5        29.99R HX 107
CONWAY         FAIR      88  75  66 S7        30.01S HX  97
GEORGETOWN     FAIR      86  77  74 S6        30.03S HX  97
MARION           N/A     88  75  66 S12       30.00S HX  97

....................REST OF NORTH CAROLINA......................

.........EASTERN NC.........

CITY           SKY/WX    TMP DP  RH WIND       PRES   REMARKS
CAPE HATTERAS  SUNNY     87  78  74 SW9       30.02R HX 100
JACKSONVILLE   MOSUNNY   91  76  61 S12       30.00S HX 103
MOREHEAD CITY  SUNNY     86  77  74 SW13      30.02R HX  97
KENANSVILLE    NOT AVBL
NEW BERN       SUNNY     91  75  59 S10       30.01S HX 101
ELIZABETH CITY MOSUNNY   93  75  55 S13       29.97S HX 104

.........CENTRAL NC.........

CITY           SKY/WX    TMP DP  RH WIND       PRES   REMARKS
RALEIGH DURHAM PTSUNNY   94  71  47 S9        29.99S HX 101
ROCKY MOUNT    SUNNY     93  75  55 SW7       29.99S HX 104
ROANOKE RAPIDS NOT AVBL
FAYETTEVILLE   SUNNY     95  70  44 VRB3      29.98S HX 101
HOFFMAN        SUNNY     94  72  48 S7        29.99S HX 101

.........WESTERN NC.........

CITY           SKY/WX    TMP DP  RH WIND       PRES   REMARKS
CHARLOTTE      PTSUNNY   95  65  37 W8        30.01S HX  97
GREENSBORO     CLOUDY    95  61  32 S7        30.01S HX  95
HICKORY        NOT AVBL
BOONE          NOT AVBL
ASHEVILLE      NOT AVBL

.....................REST OF SOUTH CAROLINA.....................

.........EASTERN SC.........

CITY           SKY/WX    TMP DP  RH WIND       PRES   REMARKS
CHARLESTON     CLOUDY    83  74  74 SW6       30.02R
BEAUFORT MCAS  MOSUNNY   92  77  61 S5        30.00F HX 105
HILTON HEAD    SUNNY     95  77  55 S8G15     30.02F HX 109

.........CENTRAL SC.........

CITY           SKY/WX    TMP DP  RH WIND       PRES   REMARKS
COLUMBIA       PTSUNNY   97  68  38 S7        29.97F HX 102
ORANGEBURG     MOSUNNY   94  73  50 S10       29.99S HX 103
SUMTER SHAW    CLOUDY    96  71  43 SE8       29.97S HAZE    HX 102

.........WESTERN SC.........

CITY           SKY/WX    TMP DP  RH WIND       PRES   REMARKS
GREENVILLE     NOT AVBL
ROCK HILL      SUNNY     95  69  42 MISG      30.01S HX 100
ANDERSON       MOSUNNY   96  64  34 W5        30.00S HX  98
CLEMSON        NOT AVBL
GREENWOOD      CLOUDY    95  68  41 S10       30.01S HX  99


...................COASTAL AND OFFSHORE REPORTS..................

................LOCAL PIERS AND NC RESERVE................


STATION/POSITION TIME  SKY/WX   TEMP    WIND        PRES    VSBY
                                AIR SEA DIR/SP/G
                 (UTC)          (F)     (DEG/KT/KT) (MB)    (MI)
JOHNY MRCER PIER 2100            85 85  180/ 13/ 15 1015.6S
NC RESRV MASNBRO NOT AVBL
OCEAN CREST PIER NOT AVBL
SPRINGMAID  PIER 2100            84 85              1016.2F


................COASTAL AND OFFSHORE BUOYS................


STATION/POSITION TIME  SKY/WX   TEMP    WIND        PRES    VSBY
                                AIR SEA DIR/SP/G
                 (UTC)          (F)     (DEG/KT/KT) (MB)    (MI)
DIMNDSHOAL 41025 2050            85 85  230/ 14/ 16 1016.4
WVE H/P(F/S)=  3/ 8 SWL H/P/D(F/S/D)=  2/130/ 8

CAPE LOOKOUT     2200            86     210/  9/ 12 1016.1R
ONSLOW BAY 41036 NOT AVBL
ONSLOW BAY 41064 2108            86 86  210/ 10/ 14 1016.6F
ONSLOW BAY 41159 2125               85                N/A
WVE H/P(F/S)=  2/ 8

5SE WRITBC 41038 2108            85 85  210/ 10/ 14 1017.5F
MASNBO INL 41110 2106               85                N/A
WVE H/P(F/S)=  2/ 8

WILM HARBR 41108 2126               86                N/A
WVE H/P(F/S)=  3/ 9

27SE WRITB 41037 2108            85 85  200/ 10/ 12 1016.9F
FRYING PAN 41013 2100            85 87  200/ 10/ 12 1016.5F
SUNST NRSH 41024 2108            84 85  220/ 12/ 16 1016.4S
CAPRS NRSH 41029 2108            84 84  200/ 10/ 14 1016.6F
EDISTO     41004 2150            85 86  180/  8/ 10 1016.5S
WVE H/P(F/S)=  2/ 9 SWL H/P/D(F/S/D)=  2/130/ 9



..........OFFSHORE BUOYS BEYOND 100 NM OFFSHORE...........
.....IN A TRIANGLE---HAT TO BERMUDA TO BAHAMAS TO HAT.....


STATION/POSITION TIME  SKY/WX   TEMP    WIND        PRES    VSBY
                                AIR SEA DIR/SP/G
                 (UTC)          (F)     (DEG/KT/KT) (MB)    (MI)
150E HAT   41001 NOT AVBL
W BERMUDA  41048 2150            84 86  270/  2/  4 1018.4R
WVE H/P(F/S)=  2/ 8 SWL H/P/D(F/S/D)=  2/110/ 8

ATLANTIC S 41049 2150            83 86  140/  6/  8 1021.3R
WVE H/P(F/S)=  3/ 7 SWL H/P/D(F/S/D)=  3/120/ 7

E BAHAMAS  41046 2200            84 85   90/ 12/ 16 1018.1S
NE BAHAMAS 41047 2100            85 86  200/  4/  6 1018.3F
120E CANVRL41010 2120            85 88  120/  6/  8 1017.9F

END




USA.gov is the U.S. government's official web portal to all federal, state and local government web resources and services.